User: anonymous   Login
Location: Unspecified
(29.9680°N, 0.0000°E)
Time: 21:22:08
(UTC+00:00)
Language:

Tiros 1 despin weight - Orbit

View from above orbital plane
View from above orbital plane
View from above satellite
View from above satellite

Ground track
Ground track

The orbit data is extracted from the following two-line orbital elements,

1   115U 60002D   19175.13568421 -.00000152  00000-0  91434-5 0  9993
2   115  48.1650 201.8666 0033659 105.8014 254.6613 14.83449789159624
Epoch (UTC): 24 June 2019 03:15:23
Eccentricity: 0.0033659
inclination: 48.1650°
perigee height: 595 km
apogee height: 642 km
right ascension of ascending node: 201.8666°
argument of perigee: 105.8014°
revolutions per day: 14.83449789
mean anomaly at epoch: 254.6613°
orbit number at epoch: 15962

The dashed part of the orbit path shows where the satellite is in the earth's shadow,  

DLR